Skip Page Navigation
NASA JPL Caltech
NASA Logo - Jet Propulsion Laboratory + View the NASA Portal
+ Near-Earth Object (NEO) Program
Search JPL
JPL Home Earth Solar System Stars & Galaxies Technology
JPL Solar System Dynamics
BODIES ORBITS EPHEMERIDES TOOLS PHYSICAL DATA DISCOVERY FAQ SITE MAP
JPL Small-Body Database Browser
Search: [ help ]  
52225 Panchenko (1968 OF1)
Classification: Main-belt Asteroid          SPK-ID: 2052225
Ephemeris | Orbit Diagram | Orbital Elements | Physical Parameters | Discovery Circumstances | Close-Approach Data ]

[ show orbit diagram ]
Orbital Elements at Epoch 2457000.5 (2014-Dec-09.0) TDB
Reference: JPL 10 (heliocentric ecliptic J2000)
 Element Value Uncertainty (1-sigma)   Units 
e .192906314756957 1.2106e-07  
a 3.055333371166441 3.787e-08 AU
q 2.465940270180773 3.6852e-07 AU
i 13.13022780011276 8.9777e-06 deg
node 282.7376103305714 3.5251e-05 deg
peri 22.06931407970407 4.0873e-05 deg
M 245.9405463265529 2.6363e-05 deg
tp 2457618.537914681027
(2016-Aug-18.03791468)
0.00014796 JED
period 1950.681351869091
5.34
3.6267e-05
9.929e-08
d
yr
n .1845509004610403 3.4312e-09 deg/d
Q 3.644726472152109 4.5175e-08 AU
  Orbit Determination Parameters
   # obs. used (total)      435  
   data-arc span      16658 days (45.61 yr)  
   first obs. used      1968-07-25  
   last obs. used      2014-03-04  
   planetary ephem.      DE431  
   SB-pert. ephem.      SB431-BIG16  
   condition code      0  
   fit RMS      .55098  
   data source      ORB  
   producer      Otto Matic  
   solution date      2014-Jun-10 08:17:17  

Additional Information
 Earth MOID = 1.45674 AU 
 T_jup = 3.168 
[ show covariance matrix ]

Ephemeris | Orbit Diagram | Orbital Elements | Physical Parameters | Discovery Circumstances | Close-Approach Data ]

Physical Parameter Table
Parameter Symbol Value Units Sigma Reference Notes
absolute magnitude H 13.7 mag n/a MPO263764  

52225 Panchenko           Discovered 1968 July 25 by G. A. Plyugin and Yu. A. Belyaev at Cerro El Roble.
Vladislav Yakovlevich Panchenko (b. 1947) is an authority in laser information technologies, scientific instrumentation technologies, non-linear optics and medical physics. He is director of the Institute on laser and information technologies.
NOTE: some special characters may not display properly (any characters within {} are an attempt to place the proper accent above a character)
Reference: 20120703/MPCPages.arcLast Updated: 2012-07-09

[ show close-approach data ]
Alternate Designations
 1968 OF1 = 2000 LW31 
Ephemeris | Orbit Diagram | Orbital Elements | Physical Parameters | Discovery Circumstances | Close-Approach Data ]
ABOUT SSD CREDITS/AWARDS PRIVACY/COPYRIGHT GLOSSARY LINKS
FirstGov 2014-Sep-02 16:49 UT
(server date/time)  
NASA Home Page
Site Manager:   Donald K. Yeomans
Webmaster  Alan B. Chamberlin